Weather History for Stavropol', Russia

Change the Weather History Date:

Friday, February 15, 2013

  Actual Average Record
Temperature  
Mean Temperature 35 °F -  
Max Temperature 39 °F - - ()
Min Temperature 31 °F - - ()
Degree Days  
Heating Degree Days 30    
Moisture  
Dew Point 33 °F    
Average Humidity 94    
Maximum Humidity 100    
Minimum Humidity 69    
Precipitation  
Precipitation 0.00 in - - ()
Sea Level Pressure  
Sea Level Pressure 29.85 in    
Wind  
Wind Speed 13 mph ()    
Max Wind Speed 22 mph    
Max Gust Speed 29 mph    
Visibility 5.0 miles    
Events Fog , Rain    
T = Trace of Precipitation, MM = Missing Value Source: Averaged Metar Reports

Daily Weather History Graph

Daily Weather History Graph

Search for Another Location

Airport:

Trip Planner

Search our weather history database for the weather conditions in past years. The results will help you decide how hot, cold, wet, or windy it might be!

Date:

Astronomy

Feb. 15, 2013 Rise Set
Actual Time 8:12 AM MSK 6:39 PM MSK
Civil Twilight 7:42 AM MSK 7:09 PM MSK
Nautical Twilight 7:08 AM MSK 7:44 PM MSK
Astronomical Twilight 6:34 AM MSK 8:18 PM MSK
Moon 10:19 AM MSK (2/15) No Moon Set
Length of Visible Light 11h 27m
Length of Day
10h 26m
Waxing Crescent, 27% of the Moon is Illuminated
Feb 15
Waxing Crescent
Feb 18
First Quarter
Feb 26
Full
Mar 5
Last Quarter
Mar 11
New

Hourly Weather History & Observations

Time (MSK) Temp. Windchill Dew Point Humidity Pressure Visibility Wind Dir Wind Speed Gust Speed Precip Events Conditions
12:00 AM 33.8 °F 23.7 °F 33.8 °F 100% 30.04 in 6.2 mi ESE 15.7 mph 22.4 mph N/A   Overcast
12:30 AM 33.8 °F 23.7 °F 33.8 °F 100% 30.01 in 6.2 mi ESE 15.7 mph 22.4 mph N/A   Overcast
1:00 AM 34 °F - 32 °F 91% 30.09 in 6 mi ESE 17.9 mph - -   Overcast
1:00 AM 33.8 °F 23.0 °F 33.8 °F 100% 30.01 in 6.2 mi ESE 17.9 mph 24.6 mph N/A   Overcast
1:30 AM 33.8 °F 23.0 °F 32.0 °F 93% 30.01 in 6.2 mi ESE 17.9 mph 24.6 mph N/A   Overcast
2:00 AM 33.8 °F 23.0 °F 32.0 °F 93% 29.98 in 6.2 mi ESE 17.9 mph 24.6 mph N/A   Overcast
2:30 AM 33.8 °F 23.0 °F 32.0 °F 93% 29.98 in 6.2 mi ESE 17.9 mph 24.6 mph N/A   Overcast
3:00 AM 32.0 °F 20.6 °F 30.2 °F 93% 29.95 in 6.2 mi ESE 17.9 mph 24.6 mph N/A   Overcast
3:30 AM 32.0 °F 19.4 °F 30.2 °F 93% 29.95 in 6.2 mi ESE 22.4 mph 29.1 mph N/A   Overcast
4:00 AM 32 °F - 30 °F 90% 30.02 in 6 mi ESE 20.1 mph - -   Overcast
4:00 AM 32.0 °F 19.4 °F 32.0 °F 100% 29.92 in 6.2 mi ESE 22.4 mph 29.1 mph N/A   Overcast
4:30 AM 32.0 °F 20.0 °F 32.0 °F 100% 29.92 in 1.2 mi ESE 20.1 mph 26.8 mph N/A   Overcast
5:00 AM 32.0 °F 20.0 °F 32.0 °F 100% 29.89 in 1.2 mi ESE 20.1 mph 26.8 mph N/A   Overcast
5:30 AM 32.0 °F 20.0 °F 32.0 °F 100% 29.89 in 2.5 mi ESE 20.1 mph 26.8 mph N/A   Overcast
6:00 AM 33.8 °F 22.3 °F 32.0 °F 93% 29.89 in 2.5 mi ESE 20.1 mph 26.8 mph N/A   Overcast
6:30 AM 33.8 °F 24.5 °F 32.0 °F 93% 29.89 in 1.2 mi ESE 13.4 mph 20.1 mph N/A   Overcast
7:00 AM 33 °F - 32 °F 95% 29.97 in 1 mi ESE 20.1 mph - -   Mist
7:00 AM 33.8 °F 23.7 °F 33.8 °F 100% 29.89 in 0.7 mi ESE 15.7 mph 22.4 mph N/A   Overcast
7:30 AM 33.8 °F 23.7 °F 33.8 °F 100% 29.89 in 0.6 mi ESE 15.7 mph 22.4 mph N/A Fog Drizzle
8:00 AM 33.8 °F 23.7 °F 33.8 °F 100% 29.86 in 0.5 mi ESE 15.7 mph 22.4 mph N/A Fog Drizzle
8:30 AM 33.8 °F 23.7 °F 33.8 °F 100% 29.86 in 0.6 mi ESE 15.7 mph 22.4 mph N/A Fog Drizzle
9:00 AM 33.8 °F 23.7 °F 33.8 °F 100% 29.86 in 0.9 mi ESE 15.7 mph 22.4 mph N/A   Drizzle
9:30 AM 33.8 °F 24.5 °F 33.8 °F 100% 29.86 in 0.6 mi ESE 13.4 mph 20.1 mph N/A Fog Drizzle
10:00 AM 33 °F - 32 °F 96% 29.93 in 0 mi East 15.7 mph - - Rain Drizzle
10:00 AM 33.8 °F 24.5 °F 33.8 °F 100% 29.86 in 0.6 mi ESE 13.4 mph 20.1 mph N/A Fog Drizzle
10:30 AM 33.8 °F 25.4 °F 33.8 °F 100% 29.83 in 1.2 mi ESE 11.2 mph 17.9 mph N/A   Overcast
11:00 AM 33.8 °F 25.4 °F 33.8 °F 100% 29.83 in 2.5 mi ESE 11.2 mph 17.9 mph N/A   Overcast
11:30 AM 33.8 °F 26.5 °F 33.8 °F 100% 29.83 in 2.5 mi ESE 8.9 mph 15.7 mph N/A   Overcast
12:00 PM 33.8 °F 24.5 °F 33.8 °F 100% 29.83 in 6.2 mi ESE 13.4 mph - N/A   Overcast
12:30 PM 33.8 °F 25.4 °F 33.8 °F 100% 29.83 in 6.2 mi ESE 11.2 mph - N/A   Overcast
1:00 PM 35 °F - 34 °F 94% 29.91 in 12 mi ESE 8.9 mph - -   Partly Cloudy
1:00 PM 35.6 °F 28.7 °F 35.6 °F 100% 29.83 in 6.2 mi ESE 8.9 mph - N/A   Overcast
1:30 PM 35.6 °F 28.7 °F 33.8 °F 93% 29.80 in 6.2 mi ESE 8.9 mph - N/A   Overcast
2:00 PM 37.4 °F 29.9 °F 33.8 °F 87% 29.80 in 6.2 mi ESE 11.2 mph - N/A   Overcast
2:30 PM 37.4 °F 32.2 °F 33.8 °F 87% 29.80 in 6.2 mi ESE 6.7 mph - N/A   Overcast
3:00 PM 37.4 °F 32.2 °F 33.8 °F 87% 29.80 in 6.2 mi East 6.7 mph - N/A   Overcast
3:30 PM 37.4 °F 30.9 °F 33.8 °F 87% 29.77 in 6.2 mi East 8.9 mph - N/A   Mostly Cloudy
4:00 PM 40 °F - 33 °F 69% 29.84 in 12 mi ENE 8.9 mph - -   Partly Cloudy
4:00 PM 39.2 °F 33.1 °F 33.8 °F 81% 29.77 in 6.2 mi East 8.9 mph - N/A   Mostly Cloudy
4:30 PM 39.2 °F 33.1 °F 33.8 °F 81% 29.77 in 6.2 mi East 8.9 mph - N/A   Mostly Cloudy
5:00 PM 37.4 °F 30.9 °F 33.8 °F 87% 29.77 in 6.2 mi East 8.9 mph - N/A   Mostly Cloudy
5:37 PM 37.4 °F 29.9 °F 33.8 °F 87% 29.77 in 6.2 mi East 11.2 mph - N/A   Mostly Cloudy
5:43 PM 37.4 °F 30.9 °F 32.0 °F 81% 29.77 in 6.2 mi East 8.9 mph - N/A   Mostly Cloudy
6:00 PM 35.6 °F 28.7 °F 32.0 °F 87% 29.77 in 6.2 mi East 8.9 mph - N/A   Mostly Cloudy
6:30 PM 33.8 °F 26.5 °F 30.2 °F 87% 29.77 in 6.2 mi East 8.9 mph - N/A   Mostly Cloudy
7:00 PM 31 °F - 29 °F 88% 29.85 in 12 mi East 6.7 mph - -   Overcast
7:00 PM 32.0 °F 25.7 °F 30.2 °F 93% 29.77 in 6.2 mi East 6.7 mph - N/A   Mostly Cloudy
7:30 PM 32.0 °F 25.7 °F 30.2 °F 93% 29.74 in 6.2 mi East 6.7 mph - N/A   Mostly Cloudy
8:00 PM 32.0 °F 25.7 °F 32.0 °F 100% 29.74 in 6.2 mi East 6.7 mph - N/A   Mostly Cloudy
8:30 PM 32.0 °F 24.3 °F 32.0 °F 100% 29.74 in 6.2 mi ESE 8.9 mph - N/A   Mostly Cloudy
9:00 PM 32.0 °F 27.6 °F 30.2 °F 93% 29.74 in 6.2 mi ESE 4.5 mph - N/A   Mostly Cloudy
9:30 PM 32.0 °F 27.6 °F 32.0 °F 100% 29.74 in 6.2 mi ESE 4.5 mph - N/A   Mostly Cloudy
10:00 PM 32 °F - 31 °F 94% 29.83 in 12 mi SSE 4.5 mph - -   Mostly Cloudy
10:00 PM 32.0 °F 27.6 °F 32.0 °F 100% 29.74 in - SSE 4.5 mph - N/A   Clear
10:30 PM 32.0 °F 27.6 °F 32.0 °F 100% 29.74 in - South 4.5 mph - N/A   Clear
11:00 PM 33.8 °F 27.9 °F 32.0 °F 93% 29.74 in - SSE 6.7 mph - N/A   Clear
11:30 PM 33.8 °F 29.7 °F 32.0 °F 93% 29.71 in - SSE 4.5 mph - N/A   Clear